Wisdom Guild ホーム

ショップ情報

登録データ

43,325 件

検索フィルター

カード名

値段

円 ~

在庫

枚 ~

テーブルトップ登録済みカード一覧

カード名価格セット言語在庫状態最終更新最終チェック
鏡細工Mirrormade150ELDENG4 枚NM売り場22/01/14 17:1022/01/14 17:26
ギャレンブリグの領主、ヨルヴォYorvo, Lord of Garenbrig100ELDENG4 枚NM売り場22/01/14 17:1022/01/14 17:23
フェイ庄の古老Faeburrow Elder180ELDJPN4 枚NM売り場22/01/14 17:1022/01/14 17:24
立派な騎士Worthy Knight200ELDJPN4 枚NM売り場22/01/14 17:1022/01/14 17:26
光を遮るものDouser of Lights10GRNENG4 枚NM売り場22/01/14 17:1022/01/14 17:26
願いの頂点、イルーナIlluna, Apex of Wishes180IKOJPN2 枚NM売り場22/01/14 17:1022/01/14 17:26
発生の根本原理Genesis Ultimatum100IKOJPN4 枚NM売り場22/01/14 17:1022/01/14 17:24
無情な行動Heartless Act230IKOJPN4 枚NM売り場22/01/14 17:1022/01/14 17:25
タイタノス・レックスTitanoth Rex150IKOJPN4 枚NM売り場22/01/14 17:1022/01/14 17:21
スプライトのドラゴンSprite Dragon100IKOJPN4 枚NM売り場22/01/14 17:1022/01/14 17:23
カード名価格セット言語在庫状態リンク最終更新最終チェック
スプライトのドラゴンSprite Dragon230IKOJPN4 枚NM売り場22/01/14 17:1022/01/14 17:26
怪物の災厄、チェビルChevill, Bane of Monsters380IKOJPN4 枚NM売り場22/01/14 17:1022/01/14 17:27
猟の頂点、スナップダックスSnapdax, Apex of the Hunt230IKOJPN4 枚NM売り場22/01/14 17:1022/01/14 17:26
さまよう怪物、イダーロYidaro, Wandering Monster180IKOJPN1 枚NM売り場22/01/14 17:1022/01/14 17:27
著大化Colossification200IKOJPNなしNM売り場22/01/14 17:1022/01/14 17:27
幼獣の復讐Offspring's Revenge180IKOJPN4 枚NM売り場22/01/14 17:1022/01/14 17:27
創造の歌Song of Creation700IKOJPN4 枚NM売り場22/01/14 17:1022/01/14 17:24
時の支配者、テフェリーTeferi, Master of Time780M21ENG2 枚NM売り場22/01/14 17:1022/01/14 17:27
薄暮薔薇の棘、ヴィトVito, Thorn of the Dusk Rose430M21JPN4 枚NM売り場22/01/14 17:1022/01/14 17:27
英雄的介入Heroic Intervention480M21JPN4 枚NM売り場22/01/14 17:1022/01/14 17:22
カード名価格セット言語在庫状態リンク最終更新最終チェック
漁る軟泥Scavenging Ooze350M21JPN4 枚NM売り場22/01/14 17:1022/01/14 17:26
万物の聖域Sanctum of All130M21ENG3 枚NM売り場22/01/14 17:1022/01/14 17:27
真面目な身代わりSolemn Simulacrum180M21ENG3 枚NM売り場22/01/14 17:1022/01/14 17:27
真面目な身代わりSolemn Simulacrum80M21JPN4 枚NM売り場22/01/14 17:1022/01/14 17:23
大殺漢Goremand10M21ENG10 枚NM売り場22/01/14 17:1022/01/14 17:27
石の牙の聖域Sanctum of Stone Fangs70M21ENG3 枚NM売り場22/01/14 17:1022/01/14 17:26
動態の占い師Kinetic Augur10M21ENG11 枚NM売り場22/01/14 17:1022/01/14 17:27
廃れた高地の聖域Sanctum of Shattered Heights80M21ENG3 枚NM売り場22/01/14 17:1022/01/14 17:23
金属複製機Chrome Replicator10M21ENG11 枚NM売り場22/01/14 17:1022/01/14 17:27
隕石Meteorite10M21ENG11 枚NM売り場22/01/14 17:1022/01/14 17:27
カード名価格セット言語在庫状態リンク最終更新最終チェック
うろつく光霊Roaming Ghostlight10M21ENG11 枚NM売り場22/01/14 17:1022/01/14 17:27
初心者の過ちRookie Mistake10M21ENG11 枚NM売り場22/01/14 17:1022/01/14 17:27
有刺メガロドンSpined Megalodon10M21ENG11 枚NM売り場22/01/14 17:1022/01/14 17:27
骨穴の粗暴者Bone Pit Brute10M21ENG11 枚NM売り場22/01/14 17:1022/01/14 17:27
噛み傷への興奮Furor of the Bitten10M21ENG11 枚NM売り場22/01/14 17:1022/01/14 17:27
ゴブリンの付け火屋Goblin Arsonist10M21ENG11 枚NM売り場22/01/14 17:1022/01/14 17:27
ショックShock50M21ENG11 枚NM売り場22/01/14 17:1022/01/14 17:27
砲塔のオーガTurret Ogre10M21ENG11 枚NM売り場22/01/14 17:1022/01/14 17:27
巨大な戦慄大口Colossal Dreadmaw10M21ENG11 枚NM売り場22/01/14 17:1022/01/14 17:27
狩人の刃Hunter's Edge10M21ENG11 枚NM売り場22/01/14 17:1022/01/14 17:27
カード名価格セット言語在庫状態リンク最終更新最終チェック
セテッサ式訓練Setessan Training10M21ENG11 枚NM売り場22/01/14 17:1022/01/14 17:27
トリュフ嗅ぎTrufflesnout10M21ENG11 枚NM売り場22/01/14 17:1022/01/14 17:27
プリズマイトPrismite10M21ENG11 枚NM売り場22/01/14 17:1022/01/14 17:27
Island30M21ENG11 枚NM売り場22/01/14 17:1022/01/14 17:27
花咲く砂地Blossoming Sands10M21ENG10 枚NM売り場22/01/14 17:1022/01/14 17:27
岩だらけの高地Rugged Highlands10M21ENG11 枚NM売り場22/01/14 17:1022/01/14 17:27
精霊龍、ウギンUgin, the Spirit Dragon7,280M21JPN2 枚NM売り場22/01/14 17:1022/01/14 17:27
炎の心、チャンドラChandra, Heart of Fire130M21JPN4 枚NM売り場22/01/14 17:1022/01/14 17:23
複視Double Vision230M21JPN3 枚NM売り場22/01/14 17:1022/01/14 17:27
耕作Cultivate380M21ENG4 枚NM売り場22/01/14 17:1022/01/14 17:23

免責事項

本システムは、各カードショップ様の了承のもと自動的にシングルカード価格データを収集・解析し提供しております。 実際の販売価格や在庫は変動しますので、この価格で販売されることを保証するものではありません。 また、カードの状態や販売方法などは各カードショップ様によって異なる他、データは自動解析されたものですので、誤記等が存在する可能性もあります。 購入時に各ショップ様のウェブサイトにてよく御確認ください。
特記無き価格情報は、税込価格です。ショップでの表示が税抜のみの場合は、独自に消費税相当額を加算しています。
本システムを利用したことによるいかなる損害も保証致しかねますので、御認識の程宜しく御願い致します。
© 1999-2022 Wisdom Guild, OWLAIR networks, All rights reserved.
管理者連絡先 | 権利表記 (実行時間:1.06 秒)